QPF
0.00 0.00 0.00 0.00 0.00 0.01 0.01 0.01 0.00 0.00 0.01 0.02 0.02 0.02 0.02 0.03 0.03 0.04 0.03 0.03 0.03 0.03 0.04 0.04 0.05 0.07 0.08 0.10 0.12 0.16 0.19 0.19 0.22 0.22 0.22 0.22 0.17 0.13 0.09 0.06 0.05 0.11 0.15
0.00 0.00 0.00 0.00 0.00 0.00 0.00 0.00 0.00 0.00 0.01 0.02 0.03 0.03 0.03 0.03 0.04 0.04 0.03 0.04 0.03 0.04 0.04 0.04 0.06 0.07 0.09 0.11 0.13 0.15 0.18 0.19 0.24 0.23 0.22 0.21 0.23 0.17 0.11 0.08 0.07 0.09 0.14
0.00 0.00 0.00 0.00 0.00 0.00 0.00 0.00 0.00 0.01 0.00 0.01 0.02 0.02 0.02 0.02 0.03 0.04 0.04 0.03 0.03 0.03 0.03 0.04 0.05 0.06 0.09 0.11 0.13 0.16 0.18 0.19 0.21 0.26 0.26 0.20 0.18 0.19 0.13 0.10 0.08 0.10 0.14
0.00 0.00 0.00 0.00 0.00 0.00 0.00 0.00 0.00 0.01 0.00 0.00 0.01 0.01 0.02 0.03 0.04 0.04 0.04 0.03 0.02 0.02 0.03 0.04 0.04 0.05 0.07 0.10 0.11 0.13 0.18 0.20 0.20 0.21 0.24 0.23 0.21 0.22 0.19 0.15 0.10 0.10 0.13
0.00 0.00 0.00 0.00 0.00 0.00 0.00 0.00 0.01 0.01 0.01 0.01 0.01 0.02 0.03 0.03 0.04 0.03 0.03 0.03 0.03 0.04 0.05 0.05 0.05 0.05 0.07 0.09 0.11 0.12 0.14 0.16 0.19 0.21 0.21 0.22 0.23 0.21 0.22 0.20 0.17 0.14 0.11
0.00 0.00 0.00 0.00 0.00 0.00 0.00 0.00 0.01 0.00 0.01 0.01 0.02 0.02 0.02 0.03 0.02 0.03 0.03 0.04 0.05 0.05 0.04 0.05 0.06 0.07 0.07 0.07 0.10 0.11 0.11 0.12 0.14 0.18 0.20 0.19 0.19 0.18 0.21 0.21 0.21 0.20 0.16
0.00 0.00 0.00 0.00 0.00 0.00 0.00 0.00 0.00 0.00 0.01 0.01 0.01 0.02 0.02 0.02 0.02 0.03 0.03 0.05 0.05 0.05 0.05 0.04 0.05 0.06 0.05 0.05 0.08 0.08 0.08 0.09 0.10 0.11 0.13 0.16 0.18 0.21 0.23 0.24 0.24 0.20 0.18
0.00 0.00 0.00 0.00 0.00 0.00 0.00 0.00 0.01 0.01 0.00 0.00 0.01 0.01 0.01 0.02 0.04 0.04 0.03 0.05 0.05 0.05 0.05 0.04 0.04 0.03 0.03 0.04 0.06 0.06 0.06 0.08 0.10 0.09 0.10 0.12 0.14 0.18 0.18 0.18 0.23 0.22 0.18
0.00 0.00 0.00 0.00 0.00 0.00 0.00 0.00 0.01 0.00 0.00 0.00 0.00 0.01 0.01 0.02 0.04 0.05 0.05 0.06 0.06 0.06 0.05 0.06 0.05 0.05 0.05 0.05 0.06 0.06 0.06 0.08 0.09 0.11 0.11 0.11 0.13 0.14 0.13 0.14 0.16 0.19 0.20
0.00 0.00 0.00 0.00 0.00 0.00 0.00 0.01 0.01 0.00 0.00 0.00 0.00 0.01 0.02 0.03 0.04 0.04 0.04 0.03 0.04 0.05 0.05 0.05 0.07 0.08 0.07 0.05 0.05 0.05 0.06 0.07 0.08 0.10 0.11 0.11 0.11 0.13 0.14 0.13 0.13 0.14 0.15
0.00 0.00 0.00 0.00 0.00 0.00 0.00 0.01 0.01 0.00 0.00 0.00 0.00 0.01 0.02 0.03 0.05 0.05 0.04 0.03 0.03 0.05 0.04 0.05 0.06 0.08 0.08 0.08 0.08 0.07 0.06 0.07 0.08 0.08 0.09 0.09 0.10 0.12 0.13 0.14 0.13 0.12 0.13
0.00 0.00 0.00 0.00 0.00 0.00 0.00 0.01 0.01 0.00 0.00 0.00 0.01 0.01 0.02 0.02 0.03 0.03 0.04 0.03 0.02 0.03 0.04 0.04 0.06 0.07 0.09 0.09 0.08 0.08 0.09 0.08 0.07 0.08 0.08 0.09 0.11 0.12 0.14 0.13 0.13 0.16 0.17
0.00 0.00 0.00 0.00 0.00 0.00 0.00 0.01 0.00 0.00 0.00 0.00 0.01 0.01 0.01 0.01 0.02 0.02 0.03 0.03 0.02 0.02 0.02 0.04 0.05 0.04 0.05 0.05 0.06 0.08 0.09 0.07 0.06 0.06 0.07 0.08 0.09 0.10 0.13 0.13 0.14 0.16 0.18
0.00 0.00 0.00 0.00 0.00 0.00 0.00 0.01 0.01 0.00 0.00 0.00 0.00 0.01 0.00 0.01 0.01 0.02 0.01 0.02 0.02 0.02 0.03 0.04 0.04 0.04 0.04 0.04 0.05 0.06 0.08 0.08 0.07 0.07 0.08 0.08 0.10 0.11 0.10 0.11 0.12 0.14 0.16
0.00 0.00 0.00 0.00 0.00 0.00 0.00 0.00 0.01 0.00 0.00 0.00 0.00 0.00 0.00 0.01 0.01 0.02 0.02 0.02 0.02 0.02 0.03 0.03 0.03 0.03 0.03 0.03 0.04 0.07 0.07 0.07 0.06 0.07 0.07 0.06 0.06 0.08 0.07 0.06 0.09 0.11 0.13
0.00 0.00 0.00 0.00 0.00 0.00 0.00 0.00 0.00 0.00 0.00 0.00 0.00 0.00 0.00 0.00 0.01 0.01 0.02 0.02 0.02 0.03 0.03 0.03 0.04 0.03 0.02 0.02 0.03 0.06 0.07 0.06 0.06 0.06 0.07 0.06 0.06 0.05 0.04 0.05 0.07 0.09 0.10
0.00 0.00 0.00 0.00 0.00 0.00 0.00 0.00 0.00 0.00 0.00 0.00 0.00 0.01 0.01 0.00 0.00 0.00 0.00 0.01 0.02 0.02 0.02 0.02 0.03 0.03 0.02 0.02 0.04 0.05 0.05 0.05 0.05 0.05 0.05 0.05 0.04 0.05 0.06 0.06 0.06 0.07 0.07
0.00 0.00 0.00 0.00 0.00 0.00 0.00 0.00 0.00 0.00 0.00 0.00 0.00 0.00 0.01 0.01 0.01 0.00 0.00 0.00 0.01 0.01 0.02 0.02 0.03 0.03 0.04 0.05 0.06 0.05 0.06 0.06 0.06 0.06 0.05 0.05 0.06 0.06 0.08 0.08 0.08 0.08 0.07
0.00 0.00 0.00 0.00 0.00 0.00 0.00 0.00 0.00 0.00 0.00 0.00 0.00 0.00 0.00 0.00 0.01 0.01 0.00 0.00 0.00 0.00 0.01 0.02 0.02 0.03 0.03 0.05 0.06 0.06 0.06 0.05 0.06 0.06 0.05 0.05 0.05 0.05 0.06 0.08 0.08 0.08 0.08
0.00 0.00 0.00 0.00 0.00 0.00 0.00 0.00 0.00 0.00 0.00 0.00 0.00 0.00 0.00 0.00 0.00 0.01 0.01 0.00 0.00 0.01 0.01 0.00 0.01 0.01 0.01 0.01 0.03 0.05 0.06 0.06 0.05 0.06 0.05 0.04 0.03 0.03 0.04 0.07 0.08 0.07 0.07
0.00 0.00 0.00 0.00 0.00 0.00 0.00 0.00 0.00 0.00 0.00 0.00 0.00 0.00 0.00 0.00 0.00 0.00 0.00 0.01 0.00 0.00 0.00 0.00 0.00 0.00 0.00 0.00 0.01 0.02 0.04 0.05 0.05 0.05 0.04 0.03 0.02 0.03 0.04 0.06 0.07 0.06 0.05
0.00 0.00 0.00 0.00 0.00 0.00 0.00 0.00 0.00 0.00 0.00 0.00 0.00 0.00 0.00 0.00 0.00 0.00 0.00 0.00 0.00 0.00 0.00 0.00 0.00 0.00 0.00 0.00 0.00 0.00 0.02 0.03 0.03 0.04 0.03 0.02 0.02 0.02 0.02 0.03 0.05 0.06 0.07
0.00 0.00 0.00 0.00 0.00 0.00 0.00 0.00 0.00 0.00 0.00 0.00 0.00 0.00 0.00 0.00 0.00 0.00 0.00 0.00 0.00 0.00 0.00 0.00 0.00 0.00 0.00 0.01 0.01 0.01 0.01 0.01 0.01 0.01 0.01 0.01 0.02 0.03 0.03 0.04 0.06 0.07 0.08
0.00 0.00 0.00 0.00 0.00 0.00 0.00 0.00 0.00 0.00 0.00 0.00 0.00 0.00 0.00 0.00 0.00 0.00 0.00 0.00 0.00 0.00 0.00 0.00 0.00 0.00 0.00 0.00 0.01 0.01 0.01 0.01 0.01 0.01 0.01 0.01 0.01 0.02 0.03 0.04 0.06 0.09 0.09
0.00 0.00 0.00 0.00 0.00 0.00 0.00 0.00 0.00 0.00 0.00 0.00 0.00 0.00 0.00 0.00 0.00 0.00 0.00 0.00 0.00 0.00 0.00 0.00 0.00 0.00 0.00 0.00 0.00 0.00 0.00 0.01 0.00 0.00 0.01 0.01 0.02 0.03 0.04 0.05 0.05 0.05 0.05
0.00 0.00 0.00 0.00 0.00 0.00 0.00 0.00 0.00 0.00 0.00 0.00 0.00 0.00 0.00 0.00 0.00 0.00 0.00 0.00 0.00 0.00 0.00 0.00 0.00 0.00 0.00 0.00 0.00 0.00 0.00 0.00 0.00 0.00 0.01 0.01 0.02 0.02 0.02 0.03 0.04 0.04 0.04
MSLP
1013.85 1014.08 1014.29 1014.46 1014.58 1014.65 1014.66 1014.63 1014.56 1014.47 1014.35 1014.23 1014.10 1013.97 1013.83 1013.70 1013.55 1013.38 1013.19 1012.97 1012.73 1012.47 1012.21 1011.98 1011.80 1011.69 1011.65 1011.70 1011.81 1011.97 1012.13 1012.26 1012.34 1012.35 1012.27 1012.13 1011.93 1011.71 1011.50 1011.32 1011.19 1011.14 1011.18
1013.90 1014.17 1014.39 1014.54 1014.63 1014.65 1014.61 1014.55 1014.47 1014.40 1014.33 1014.27 1014.22 1014.16 1014.08 1013.98 1013.84 1013.67 1013.46 1013.21 1012.95 1012.68 1012.42 1012.18 1011.98 1011.84 1011.76 1011.73 1011.75 1011.80 1011.88 1011.95 1012.01 1012.03 1012.02 1011.97 1011.88 1011.76 1011.62 1011.47 1011.34 1011.23 1011.17
1013.97 1014.26 1014.48 1014.61 1014.65 1014.62 1014.54 1014.45 1014.37 1014.32 1014.30 1014.31 1014.33 1014.34 1014.32 1014.25 1014.12 1013.93 1013.70 1013.43 1013.14 1012.85 1012.57 1012.32 1012.10 1011.92 1011.77 1011.66 1011.58 1011.54 1011.53 1011.55 1011.59 1011.65 1011.72 1011.78 1011.83 1011.84 1011.80 1011.72 1011.61 1011.47 1011.34
1014.03 1014.33 1014.55 1014.65 1014.66 1014.59 1014.48 1014.37 1014.29 1014.26 1014.29 1014.36 1014.44 1014.50 1014.52 1014.47 1014.34 1014.13 1013.87 1013.57 1013.25 1012.94 1012.64 1012.37 1012.12 1011.89 1011.68 1011.49 1011.33 1011.19 1011.11 1011.08 1011.12 1011.22 1011.37 1011.55 1011.73 1011.88 1011.97 1011.98 1011.91 1011.77 1011.59
1014.06 1014.37 1014.58 1014.68 1014.68 1014.58 1014.45 1014.33 1014.25 1014.24 1014.30 1014.40 1014.53 1014.62 1014.66 1014.62 1014.47 1014.24 1013.95 1013.61 1013.26 1012.92 1012.60 1012.30 1012.03 1011.76 1011.50 1011.25 1011.01 1010.81 1010.66 1010.59 1010.62 1010.75 1010.96 1011.24 1011.54 1011.81 1012.01 1012.11 1012.10 1011.98 1011.78
1014.03 1014.35 1014.58 1014.69 1014.69 1014.60 1014.46 1014.34 1014.26 1014.26 1014.33 1014.45 1014.58 1014.69 1014.73 1014.67 1014.51 1014.25 1013.92 1013.55 1013.17 1012.80 1012.46 1012.15 1011.85 1011.56 1011.27 1010.97 1010.68 1010.42 1010.23 1010.12 1010.13 1010.26 1010.51 1010.84 1011.21 1011.56 1011.85 1012.02 1012.07 1011.99 1011.80
1013.94 1014.27 1014.53 1014.67 1014.69 1014.62 1014.50 1014.38 1014.30 1014.29 1014.35 1014.47 1014.59 1014.69 1014.71 1014.63 1014.45 1014.16 1013.80 1013.41 1013.01 1012.62 1012.27 1011.95 1011.64 1011.34 1011.03 1010.71 1010.39 1010.09 1009.85 1009.70 1009.68 1009.78 1010.01 1010.34 1010.72 1011.11 1011.43 1011.66 1011.75 1011.71 1011.56
1013.78 1014.14 1014.43 1014.61 1014.67 1014.63 1014.53 1014.42 1014.34 1014.32 1014.36 1014.45 1014.55 1014.62 1014.62 1014.52 1014.31 1014.01 1013.64 1013.23 1012.82 1012.43 1012.08 1011.76 1011.46 1011.16 1010.85 1010.52 1010.19 1009.86 1009.58 1009.39 1009.30 1009.34 1009.51 1009.79 1010.13 1010.49 1010.81 1011.04 1011.17 1011.18 1011.08
1013.55 1013.94 1014.27 1014.50 1014.60 1014.60 1014.53 1014.43 1014.34 1014.30 1014.32 1014.38 1014.45 1014.49 1014.47 1014.36 1014.15 1013.85 1013.48 1013.08 1012.68 1012.30 1011.96 1011.66 1011.37 1011.09 1010.79 1010.46 1010.12 1009.78 1009.46 1009.21 1009.05 1009.00 1009.07 1009.25 1009.50 1009.79 1010.06 1010.29 1010.44 1010.49 1010.46
1013.27 1013.68 1014.04 1014.31 1014.47 1014.51 1014.46 1014.37 1014.29 1014.24 1014.23 1014.26 1014.30 1014.33 1014.30 1014.19 1013.99 1013.71 1013.37 1013.00 1012.63 1012.28 1011.96 1011.68 1011.41 1011.15 1010.87 1010.56 1010.22 1009.86 1009.51 1009.20 1008.95 1008.81 1008.76 1008.82 1008.96 1009.15 1009.36 1009.55 1009.70 1009.80 1009.84
1012.95 1013.37 1013.76 1014.05 1014.24 1014.31 1014.29 1014.23 1014.15 1014.10 1014.08 1014.10 1014.14 1014.16 1014.14 1014.05 1013.88 1013.64 1013.34 1013.02 1012.69 1012.37 1012.09 1011.84 1011.60 1011.36 1011.10 1010.80 1010.47 1010.10 1009.73 1009.37 1009.05 1008.81 1008.66 1008.59 1008.62 1008.71 1008.85 1009.00 1009.15 1009.28 1009.39
1012.62 1013.03 1013.41 1013.72 1013.92 1014.02 1014.03 1013.99 1013.93 1013.89 1013.89 1013.92 1013.97 1014.00 1014.01 1013.95 1013.83 1013.64 1013.40 1013.12 1012.84 1012.57 1012.32 1012.10 1011.89 1011.67 1011.43 1011.16 1010.84 1010.47 1010.09 1009.70 1009.33 1009.01 1008.77 1008.61 1008.54 1008.55 1008.63 1008.75 1008.90 1009.05 1009.20
1012.29 1012.67 1013.03 1013.32 1013.53 1013.64 1013.67 1013.66 1013.64 1013.64 1013.67 1013.72 1013.80 1013.87 1013.90 1013.89 1013.82 1013.68 1013.49 1013.27 1013.04 1012.81 1012.60 1012.40 1012.22 1012.02 1011.81 1011.55 1011.25 1010.90 1010.51 1010.11 1009.73 1009.37 1009.08 1008.86 1008.73 1008.69 1008.72 1008.82 1008.96 1009.12 1009.29
1011.98 1012.31 1012.63 1012.89 1013.08 1013.19 1013.25 1013.28 1013.31 1013.35 1013.42 1013.52 1013.64 1013.75 1013.83 1013.85 1013.82 1013.73 1013.59 1013.41 1013.22 1013.03 1012.85 1012.68 1012.51 1012.34 1012.14 1011.91 1011.63 1011.30 1010.93 1010.55 1010.16 1009.80 1009.50 1009.26 1009.10 1009.04 1009.05 1009.13 1009.25 1009.41 1009.57
1011.69 1011.96 1012.22 1012.43 1012.60 1012.71 1012.80 1012.87 1012.95 1013.06 1013.19 1013.34 1013.50 1013.64 1013.76 1013.82 1013.82 1013.76 1013.65 1013.50 1013.34 1013.18 1013.02 1012.87 1012.72 1012.56 1012.38 1012.17 1011.91 1011.61 1011.27 1010.91 1010.54 1010.21 1009.92 1009.69 1009.54 1009.46 1009.47 1009.53 1009.64 1009.77 1009.89
1011.41 1011.62 1011.81 1011.98 1012.12 1012.24 1012.35 1012.47 1012.61 1012.78 1012.97 1013.17 1013.38 1013.55 1013.69 1013.77 1013.78 1013.74 1013.64 1013.52 1013.37 1013.22 1013.08 1012.94 1012.80 1012.66 1012.49 1012.29 1012.06 1011.78 1011.47 1011.14 1010.81 1010.50 1010.24 1010.03 1009.90 1009.83 1009.83 1009.88 1009.95 1010.02 1010.08
1011.15 1011.29 1011.43 1011.55 1011.67 1011.79 1011.93 1012.10 1012.30 1012.53 1012.78 1013.03 1013.27 1013.47 1013.61 1013.69 1013.71 1013.66 1013.57 1013.45 1013.31 1013.17 1013.03 1012.90 1012.77 1012.64 1012.48 1012.29 1012.07 1011.81 1011.52 1011.22 1010.92 1010.64 1010.40 1010.22 1010.09 1010.03 1010.01 1010.03 1010.05 1010.05 1010.02
1010.88 1010.98 1011.07 1011.16 1011.26 1011.40 1011.57 1011.78 1012.04 1012.32 1012.62 1012.91 1013.17 1013.38 1013.52 1013.59 1013.60 1013.54 1013.44 1013.32 1013.18 1013.04 1012.91 1012.79 1012.67 1012.54 1012.39 1012.21 1012.00 1011.75 1011.47 1011.18 1010.89 1010.62 1010.40 1010.22 1010.09 1010.01 1009.97 1009.93 1009.89 1009.80 1009.67
1010.61 1010.68 1010.74 1010.81 1010.92 1011.07 1011.27 1011.52 1011.81 1012.14 1012.47 1012.78 1013.05 1013.26 1013.40 1013.47 1013.46 1013.39 1013.28 1013.15 1013.01 1012.88 1012.76 1012.64 1012.53 1012.41 1012.27 1012.09 1011.88 1011.64 1011.36 1011.07 1010.79 1010.52 1010.28 1010.09 1009.94 1009.83 1009.73 1009.64 1009.51 1009.34 1009.10
1010.35 1010.40 1010.45 1010.53 1010.63 1010.79 1011.01 1011.29 1011.61 1011.96 1012.30 1012.63 1012.90 1013.11 1013.24 1013.29 1013.27 1013.20 1013.08 1012.95 1012.82 1012.69 1012.58 1012.48 1012.38 1012.27 1012.14 1011.98 1011.77 1011.53 1011.26 1010.97 1010.67 1010.39 1010.14 1009.91 1009.73 1009.56 1009.41 1009.25 1009.05 1008.79 1008.46
1010.11 1010.17 1010.22 1010.30 1010.41 1010.57 1010.80 1011.08 1011.40 1011.75 1012.09 1012.41 1012.68 1012.88 1013.00 1013.05 1013.02 1012.94 1012.83 1012.70 1012.58 1012.46 1012.36 1012.27 1012.19 1012.10 1011.99 1011.85 1011.67 1011.44 1011.19 1010.90 1010.60 1010.31 1010.03 1009.77 1009.54 1009.33 1009.12 1008.89 1008.62 1008.29 1007.90
1009.93 1010.00 1010.06 1010.14 1010.25 1010.40 1010.61 1010.87 1011.17 1011.50 1011.82 1012.11 1012.36 1012.55 1012.66 1012.69 1012.67 1012.59 1012.48 1012.36 1012.24 1012.13 1012.05 1011.98 1011.92 1011.86 1011.78 1011.67 1011.52 1011.34 1011.11 1010.85 1010.56 1010.27 1009.98 1009.70 1009.43 1009.17 1008.92 1008.64 1008.32 1007.96 1007.53
1009.83 1009.92 1009.99 1010.06 1010.15 1010.28 1010.45 1010.67 1010.92 1011.20 1011.47 1011.73 1011.94 1012.10 1012.19 1012.22 1012.18 1012.10 1012.00 1011.88 1011.76 1011.66 1011.58 1011.53 1011.49 1011.46 1011.42 1011.37 1011.28 1011.15 1010.97 1010.76 1010.51 1010.24 1009.96 1009.67 1009.39 1009.11 1008.82 1008.51 1008.18 1007.81 1007.38
1009.85 1009.94 1010.01 1010.07 1010.14 1010.23 1010.34 1010.50 1010.68 1010.88 1011.09 1011.28 1011.44 1011.55 1011.62 1011.62 1011.58 1011.49 1011.37 1011.24 1011.12 1011.01 1010.93 1010.89 1010.87 1010.87 1010.88 1010.88 1010.85 1010.80 1010.70 1010.55 1010.37 1010.14 1009.89 1009.62 1009.34 1009.05 1008.75 1008.45 1008.13 1007.78 1007.40
1009.98 1010.09 1010.16 1010.20 1010.23 1010.27 1010.32 1010.39 1010.48 1010.60 1010.71 1010.83 1010.92 1010.98 1011.00 1010.97 1010.89 1010.78 1010.64 1010.49 1010.34 1010.22 1010.12 1010.07 1010.06 1010.08 1010.12 1010.18 1010.22 1010.25 1010.23 1010.17 1010.05 1009.89 1009.68 1009.44 1009.18 1008.90 1008.62 1008.33 1008.05 1007.75 1007.44
1010.23 1010.35 1010.42 1010.45 1010.45 1010.44 1010.42 1010.41 1010.41 1010.42 1010.44 1010.46 1010.48 1010.47 1010.43 1010.35 1010.23 1010.08 1009.90 1009.71 1009.53 1009.37 1009.24 1009.16 1009.14 1009.16 1009.23 1009.32 1009.42 1009.51 1009.56 1009.57 1009.52 1009.42 1009.26 1009.05 1008.81 1008.56 1008.30 1008.04 1007.80 1007.57 1007.35
Thickness
5736 5732 5725 5720 5715 5710 5705 5701 5697 5695 5692 5687 5684 5682 5682 5683 5684 5685 5686 5686 5687 5689 5692 5695 5698 5701 5704 5707 5711 5714 5715 5717 5720 5719 5722 5728 5734 5738 5744 5750 5753 5755 5755
5733 5729 5724 5718 5713 5707 5702 5699 5695 5692 5689 5685 5683 5681 5680 5679 5680 5680 5680 5680 5681 5683 5686 5688 5690 5694 5696 5699 5703 5706 5707 5710 5714 5712 5711 5712 5719 5728 5738 5743 5746 5749 5751
5730 5725 5720 5715 5711 5706 5701 5697 5693 5691 5687 5684 5681 5678 5676 5674 5673 5673 5673 5675 5677 5678 5680 5682 5684 5688 5690 5692 5696 5699 5700 5701 5706 5710 5708 5706 5707 5716 5726 5735 5740 5743 5746
5730 5724 5719 5714 5710 5706 5702 5696 5693 5689 5685 5682 5678 5672 5669 5666 5666 5667 5669 5671 5673 5674 5675 5677 5679 5682 5685 5687 5690 5694 5695 5696 5697 5702 5708 5711 5712 5709 5711 5722 5731 5736 5739
5730 5724 5720 5715 5711 5707 5701 5696 5692 5688 5684 5680 5677 5672 5668 5665 5664 5665 5665 5666 5668 5669 5671 5672 5674 5676 5679 5682 5684 5687 5689 5691 5693 5695 5699 5703 5706 5709 5707 5708 5717 5724 5731
5732 5726 5722 5717 5711 5707 5701 5696 5691 5687 5684 5680 5677 5673 5668 5665 5662 5661 5660 5661 5663 5664 5666 5668 5669 5672 5674 5676 5679 5681 5684 5686 5689 5692 5695 5696 5698 5701 5704 5704 5708 5713 5721
5732 5726 5721 5715 5710 5706 5701 5697 5692 5687 5684 5680 5676 5673 5669 5665 5661 5659 5658 5658 5658 5660 5662 5663 5665 5667 5670 5672 5674 5676 5678 5682 5684 5686 5690 5693 5696 5699 5701 5701 5702 5706 5712
5733 5727 5722 5717 5712 5708 5703 5698 5692 5688 5684 5681 5677 5674 5670 5666 5662 5659 5657 5657 5657 5658 5660 5661 5663 5664 5667 5668 5670 5672 5674 5678 5680 5683 5685 5688 5691 5695 5697 5698 5697 5697 5701
5734 5729 5725 5720 5715 5710 5705 5700 5694 5690 5686 5682 5678 5674 5670 5666 5663 5661 5659 5657 5657 5659 5659 5660 5661 5662 5663 5665 5666 5667 5670 5673 5675 5678 5681 5683 5687 5691 5694 5696 5697 5694 5692
5737 5732 5726 5722 5717 5713 5708 5704 5698 5693 5688 5684 5679 5675 5671 5668 5664 5662 5659 5658 5658 5658 5658 5659 5660 5661 5661 5662 5663 5664 5667 5668 5671 5674 5676 5679 5682 5685 5688 5691 5693 5694 5693
5738 5733 5728 5724 5720 5716 5711 5706 5701 5695 5689 5684 5680 5675 5672 5669 5667 5663 5661 5659 5659 5658 5658 5659 5659 5659 5659 5659 5660 5661 5664 5665 5666 5669 5672 5675 5678 5680 5683 5686 5689 5690 5692
5740 5736 5731 5726 5721 5716 5712 5707 5703 5697 5691 5686 5681 5677 5674 5671 5667 5664 5662 5661 5659 5659 5658 5658 5657 5656 5656 5656 5656 5657 5659 5661 5661 5664 5667 5670 5673 5675 5678 5681 5684 5686 5689
5742 5737 5731 5726 5722 5718 5713 5709 5704 5699 5694 5688 5682 5678 5675 5671 5668 5665 5663 5661 5659 5658 5657 5656 5655 5654 5654 5653 5654 5655 5656 5657 5659 5661 5663 5665 5668 5669 5673 5676 5679 5682 5686
5743 5738 5732 5728 5724 5720 5716 5711 5706 5702 5697 5691 5685 5680 5676 5673 5670 5667 5664 5661 5659 5657 5655 5654 5654 5653 5651 5651 5650 5651 5652 5654 5656 5658 5659 5661 5663 5665 5668 5671 5674 5677 5679
5745 5740 5734 5730 5726 5722 5718 5713 5708 5704 5699 5693 5687 5682 5679 5675 5671 5668 5665 5662 5659 5657 5655 5653 5652 5651 5650 5648 5647 5647 5649 5651 5652 5655 5657 5659 5661 5662 5664 5666 5668 5670 5672
5746 5743 5738 5733 5728 5725 5720 5715 5710 5706 5701 5695 5689 5685 5681 5676 5672 5669 5666 5662 5660 5657 5655 5653 5651 5649 5648 5647 5646 5646 5646 5648 5649 5651 5654 5656 5657 5659 5661 5662 5664 5666 5666
5748 5744 5740 5736 5731 5728 5723 5716 5712 5708 5702 5697 5692 5687 5682 5678 5674 5671 5667 5663 5660 5658 5655 5653 5651 5649 5647 5647 5647 5646 5646 5647 5648 5650 5651 5653 5655 5655 5656 5658 5660 5661 5664
5749 5745 5741 5738 5734 5731 5726 5720 5715 5709 5703 5698 5693 5689 5684 5679 5675 5672 5668 5665 5662 5659 5656 5654 5652 5650 5648 5647 5646 5646 5646 5647 5647 5648 5649 5649 5650 5652 5652 5653 5654 5656 5659
5750 5746 5743 5739 5735 5731 5727 5721 5716 5710 5704 5698 5694 5690 5686 5681 5677 5673 5669 5667 5664 5661 5659 5657 5654 5651 5650 5648 5646 5646 5645 5645 5646 5646 5647 5647 5647 5648 5649 5650 5650 5651 5654
5749 5746 5742 5739 5734 5730 5726 5719 5714 5710 5704 5700 5696 5693 5688 5683 5678 5674 5672 5669 5666 5663 5661 5659 5657 5654 5651 5649 5647 5646 5645 5644 5644 5644 5645 5645 5645 5645 5646 5646 5647 5647 5650
5746 5743 5739 5734 5731 5728 5723 5716 5713 5708 5705 5701 5697 5693 5689 5685 5681 5677 5674 5671 5668 5665 5662 5660 5659 5656 5653 5651 5648 5646 5644 5642 5642 5642 5642 5642 5643 5643 5644 5645 5645 5646 5648
5742 5739 5734 5730 5728 5726 5720 5714 5710 5708 5705 5701 5696 5692 5689 5686 5683 5678 5675 5672 5669 5665 5663 5661 5660 5658 5656 5653 5650 5647 5645 5644 5641 5641 5640 5640 5640 5641 5642 5642 5643 5645 5645
5737 5734 5730 5726 5724 5722 5718 5711 5709 5708 5704 5699 5695 5692 5690 5687 5684 5679 5676 5673 5670 5666 5664 5661 5659 5657 5656 5654 5651 5648 5646 5645 5642 5641 5640 5640 5640 5639 5639 5640 5641 5642 5642
5733 5729 5725 5720 5718 5718 5715 5711 5708 5706 5702 5697 5695 5693 5690 5687 5685 5681 5678 5673 5669 5666 5663 5661 5658 5657 5655 5653 5650 5648 5646 5644 5642 5641 5640 5640 5640 5638 5638 5638 5639 5640 5641
5727 5724 5719 5715 5713 5712 5710 5707 5704 5702 5698 5695 5693 5692 5689 5687 5683 5681 5677 5674 5672 5668 5663 5661 5658 5655 5653 5651 5650 5647 5645 5642 5640 5639 5640 5640 5639 5638 5638 5639 5639 5639 5639
5721 5717 5713 5709 5708 5706 5703 5701 5699 5696 5693 5691 5690 5687 5685 5683 5681 5678 5676 5676 5673 5670 5667 5664 5660 5657 5655 5652 5650 5647 5645 5642 5640 5638 5638 5638 5639 5638 5638 5638 5638 5638 5637